Index of /20260412/WXO-DD/model_gdps/15km/00/201
Name Last modified Size Description
Parent Directory -
20260412T00Z_MSC_GDPS_AirTemp_AGL-120m_LatLon0.15_PT201H.grib2 2026-04-12 04:50 906K
20260412T00Z_MSC_GDPS_AirTemp_AGL-2m_LatLon0.15_PT201H.grib2 2026-04-12 04:50 1.0M
20260412T00Z_MSC_GDPS_AirTemp_AGL-40m_LatLon0.15_PT201H.grib2 2026-04-12 04:50 806K
20260412T00Z_MSC_GDPS_AirTemp_AGL-80m_LatLon0.15_PT201H.grib2 2026-04-12 04:50 914K
20260412T00Z_MSC_GDPS_AirTemp_IsbL-0001_LatLon0.15_PT201H.grib2 2026-04-12 04:50 701K
20260412T00Z_MSC_GDPS_AirTemp_IsbL-0005_LatLon0.15_PT201H.grib2 2026-04-12 04:50 738K
20260412T00Z_MSC_GDPS_AirTemp_IsbL-0500_LatLon0.15_PT201H.grib2 2026-04-12 04:50 1.0M
20260412T00Z_MSC_GDPS_AirTemp_IsbL-0700_LatLon0.15_PT201H.grib2 2026-04-12 04:50 950K
20260412T00Z_MSC_GDPS_AirTemp_IsbL-0850_LatLon0.15_PT201H.grib2 2026-04-12 04:50 1.1M
20260412T00Z_MSC_GDPS_AirTemp_IsbL-0925_LatLon0.15_PT201H.grib2 2026-04-12 04:50 1.1M
20260412T00Z_MSC_GDPS_AirTemp_IsbL-1000_LatLon0.15_PT201H.grib2 2026-04-12 04:50 1.1M
20260412T00Z_MSC_GDPS_Albedo_Sfc_LatLon0.15_PT201H.grib2 2026-04-12 04:50 245K
20260412T00Z_MSC_GDPS_ConvectivePrecip-Accum_Sfc_LatLon0.15_PT201H.grib2 2026-04-12 04:50 3.8M
20260412T00Z_MSC_GDPS_DewPointDepression_AGL-2m_LatLon0.15_PT201H.grib2 2026-04-12 04:50 752K
20260412T00Z_MSC_GDPS_DewPointDepression_IsbL-0500_LatLon0.15_PT201H.grib2 2026-04-12 04:50 1.0M
20260412T00Z_MSC_GDPS_DewPointDepression_IsbL-0700_LatLon0.15_PT201H.grib2 2026-04-12 04:50 1.1M
20260412T00Z_MSC_GDPS_DewPointDepression_IsbL-0850_LatLon0.15_PT201H.grib2 2026-04-12 04:50 1.2M
20260412T00Z_MSC_GDPS_DewPointDepression_IsbL-0925_LatLon0.15_PT201H.grib2 2026-04-12 04:50 1.0M
20260412T00Z_MSC_GDPS_DewPointDepression_IsbL-1000_LatLon0.15_PT201H.grib2 2026-04-12 04:50 969K
20260412T00Z_MSC_GDPS_DewPoint_AGL-2m_LatLon0.15_PT201H.grib2 2026-04-12 04:50 613K
20260412T00Z_MSC_GDPS_DownwardLongwaveRadiationFlux-Accum_Sfc_LatLon0.15_PT201H.grib2 2026-04-12 04:50 670K
20260412T00Z_MSC_GDPS_DownwardShortwaveRadiationFlux-Accum_Sfc_LatLon0.15_PT201H.grib2 2026-04-12 04:50 902K
20260412T00Z_MSC_GDPS_FreezingRain-Accum_Sfc_LatLon0.15_PT201H.grib2 2026-04-12 04:50 368K
20260412T00Z_MSC_GDPS_GeopotentialHeight_IsbL-0001_LatLon0.15_PT201H.grib2 2026-04-12 04:50 381K
20260412T00Z_MSC_GDPS_GeopotentialHeight_IsbL-0005_LatLon0.15_PT201H.grib2 2026-04-12 04:50 503K
20260412T00Z_MSC_GDPS_GeopotentialHeight_IsbL-0500_LatLon0.15_PT201H.grib2 2026-04-12 04:50 530K
20260412T00Z_MSC_GDPS_GeopotentialHeight_IsbL-0700_LatLon0.15_PT201H.grib2 2026-04-12 04:50 681K
20260412T00Z_MSC_GDPS_GeopotentialHeight_IsbL-0850_LatLon0.15_PT201H.grib2 2026-04-12 04:50 715K
20260412T00Z_MSC_GDPS_GeopotentialHeight_IsbL-0925_LatLon0.15_PT201H.grib2 2026-04-12 04:50 733K
20260412T00Z_MSC_GDPS_GeopotentialHeight_IsbL-1000_LatLon0.15_PT201H.grib2 2026-04-12 04:50 785K
20260412T00Z_MSC_GDPS_IcePellets-Accum_Sfc_LatLon0.15_PT201H.grib2 2026-04-12 04:50 228K
20260412T00Z_MSC_GDPS_LatentHeatNetFlux_Sfc_LatLon0.15_PT201H.grib2 2026-04-12 04:50 710K
20260412T00Z_MSC_GDPS_O3MixingRatio_LatLon0.15_PT201H.grib2 2026-04-12 05:06 2.3M
20260412T00Z_MSC_GDPS_O3_EAtm_LatLon0.15_PT201H.grib2 2026-04-12 05:06 2.1M
20260412T00Z_MSC_GDPS_PlanetaryBoundaryLayerHeight_Sfc_LatLon0.15_PT201H.grib2 2026-04-12 04:50 2.5M
20260412T00Z_MSC_GDPS_Precip-Accum_Sfc_LatLon0.15_PT201H.grib2 2026-04-12 04:50 5.0M
20260412T00Z_MSC_GDPS_PrecipRate_Sfc_LatLon0.15_PT201H.grib2 2026-04-12 04:50 3.2M
20260412T00Z_MSC_GDPS_Pressure_MSL_LatLon0.15_PT201H.grib2 2026-04-12 04:50 719K
20260412T00Z_MSC_GDPS_Pressure_Sfc_LatLon0.15_PT201H.grib2 2026-04-12 04:50 1.1M
20260412T00Z_MSC_GDPS_RadiativeTemp_Sfc_LatLon0.15_PT201H.grib2 2026-04-12 04:50 510K
20260412T00Z_MSC_GDPS_Rain-Accum_Sfc_LatLon0.15_PT201H.grib2 2026-04-12 04:50 4.1M
20260412T00Z_MSC_GDPS_RelativeHumidity_AGL-2m_LatLon0.15_PT201H.grib2 2026-04-12 04:50 1.0M
20260412T00Z_MSC_GDPS_Runoff-Accum_Sfc_LatLon0.15_PT201H.grib2 2026-04-12 04:50 107K
20260412T00Z_MSC_GDPS_SensibleHeatNetFlux_Sfc_LatLon0.15_PT201H.grib2 2026-04-12 04:50 653K
20260412T00Z_MSC_GDPS_Snow-Accum_Sfc_LatLon0.15_PT201H.grib2 2026-04-12 04:50 1.9M
20260412T00Z_MSC_GDPS_SnowDepth_Sfc_LatLon0.15_PT201H.grib2 2026-04-12 04:50 1.8M
20260412T00Z_MSC_GDPS_SoilTemp_DBS-0to10cm_LatLon0.15_PT201H.grib2 2026-04-12 04:50 510K
20260412T00Z_MSC_GDPS_SoilTemp_Sfc_LatLon0.15_PT201H.grib2 2026-04-12 04:50 592K
20260412T00Z_MSC_GDPS_SoilVolumetricWaterContent_DBS-0to10cm_LatLon0.15_PT201H.grib2 2026-04-12 04:50 553K
20260412T00Z_MSC_GDPS_SoilVolumetricWaterContent_DBS-0to1cm_LatLon0.15_PT201H.grib2 2026-04-12 04:50 651K
20260412T00Z_MSC_GDPS_SpecificHumidity_AGL-120m_LatLon0.15_PT201H.grib2 2026-04-12 04:50 1.1M
20260412T00Z_MSC_GDPS_SpecificHumidity_AGL-2m_LatLon0.15_PT201H.grib2 2026-04-12 04:50 1.2M
20260412T00Z_MSC_GDPS_SpecificHumidity_AGL-40m_LatLon0.15_PT201H.grib2 2026-04-12 04:50 1.1M
20260412T00Z_MSC_GDPS_SpecificHumidity_AGL-80m_LatLon0.15_PT201H.grib2 2026-04-12 04:50 1.1M
20260412T00Z_MSC_GDPS_SpecificHumidity_IsbL-0001_LatLon0.15_PT201H.grib2 2026-04-12 04:50 1.0M
20260412T00Z_MSC_GDPS_SpecificHumidity_IsbL-0005_LatLon0.15_PT201H.grib2 2026-04-12 04:50 1.3M
20260412T00Z_MSC_GDPS_SpecificHumidity_IsbL-0500_LatLon0.15_PT201H.grib2 2026-04-12 04:50 1.4M
20260412T00Z_MSC_GDPS_SpecificHumidity_IsbL-0700_LatLon0.15_PT201H.grib2 2026-04-12 04:50 1.6M
20260412T00Z_MSC_GDPS_SpecificHumidity_IsbL-0850_LatLon0.15_PT201H.grib2 2026-04-12 04:50 1.9M
20260412T00Z_MSC_GDPS_SpecificHumidity_IsbL-0925_LatLon0.15_PT201H.grib2 2026-04-12 04:50 1.6M
20260412T00Z_MSC_GDPS_SpecificHumidity_IsbL-1000_LatLon0.15_PT201H.grib2 2026-04-12 04:50 1.5M
20260412T00Z_MSC_GDPS_SpecificHumidity_Sfc_LatLon0.15_PT201H.grib2 2026-04-12 04:50 669K
20260412T00Z_MSC_GDPS_Thickness_IsbL-0850to0700_LatLon0.15_PT201H.grib2 2026-04-12 04:50 466K
20260412T00Z_MSC_GDPS_Thickness_IsbL-1000to0500_LatLon0.15_PT201H.grib2 2026-04-12 04:50 371K
20260412T00Z_MSC_GDPS_Thickness_IsbL-1000to0850_LatLon0.15_PT201H.grib2 2026-04-12 04:50 488K
20260412T00Z_MSC_GDPS_TotalCloudCover_Sfc_LatLon0.15_PT201H.grib2 2026-04-12 04:50 836K
20260412T00Z_MSC_GDPS_UVIndex-ClearSky_Sfc_LatLon0.15_PT201H.grib2 2026-04-12 05:06 1.0M
20260412T00Z_MSC_GDPS_UVIndex_Sfc_LatLon0.15_PT201H.grib2 2026-04-12 05:06 1.4M
20260412T00Z_MSC_GDPS_UpwardLongwaveRadiationFlux_NTAtm_LatLon0.15_PT201H.grib2 2026-04-12 04:50 834K
20260412T00Z_MSC_GDPS_VerticalVelocity_IsbL-0500_LatLon0.15_PT201H.grib2 2026-04-12 04:50 1.3M
20260412T00Z_MSC_GDPS_VerticalVelocity_IsbL-0700_LatLon0.15_PT201H.grib2 2026-04-12 04:50 1.1M
20260412T00Z_MSC_GDPS_VerticalVelocity_IsbL-0850_LatLon0.15_PT201H.grib2 2026-04-12 04:50 1.3M
20260412T00Z_MSC_GDPS_WindDir_AGL-10m_LatLon0.15_PT201H.grib2 2026-04-12 04:50 1.3M
20260412T00Z_MSC_GDPS_WindDir_AGL-120m_LatLon0.15_PT201H.grib2 2026-04-12 04:50 1.4M
20260412T00Z_MSC_GDPS_WindDir_AGL-40m_LatLon0.15_PT201H.grib2 2026-04-12 04:50 1.4M
20260412T00Z_MSC_GDPS_WindDir_AGL-80m_LatLon0.15_PT201H.grib2 2026-04-12 04:50 1.4M
20260412T00Z_MSC_GDPS_WindDir_IsbL-0001_LatLon0.15_PT201H.grib2 2026-04-12 04:50 639K
20260412T00Z_MSC_GDPS_WindDir_IsbL-0005_LatLon0.15_PT201H.grib2 2026-04-12 04:50 783K
20260412T00Z_MSC_GDPS_WindDir_IsbL-0500_LatLon0.15_PT201H.grib2 2026-04-12 04:50 1.4M
20260412T00Z_MSC_GDPS_WindDir_IsbL-0700_LatLon0.15_PT201H.grib2 2026-04-12 04:50 1.6M
20260412T00Z_MSC_GDPS_WindDir_IsbL-0850_LatLon0.15_PT201H.grib2 2026-04-12 04:50 1.9M
20260412T00Z_MSC_GDPS_WindDir_IsbL-0925_LatLon0.15_PT201H.grib2 2026-04-12 04:50 2.0M
20260412T00Z_MSC_GDPS_WindDir_IsbL-1000_LatLon0.15_PT201H.grib2 2026-04-12 04:50 2.1M
20260412T00Z_MSC_GDPS_WindGust-Max_AGL-10m_LatLon0.15_PT201H.grib2 2026-04-12 04:50 2.2M
20260412T00Z_MSC_GDPS_WindGust-Min_AGL-10m_LatLon0.15_PT201H.grib2 2026-04-12 04:50 2.1M
20260412T00Z_MSC_GDPS_WindGust_AGL-10m_LatLon0.15_PT201H.grib2 2026-04-12 04:50 2.1M
20260412T00Z_MSC_GDPS_WindSpeed_AGL-10m_LatLon0.15_PT201H.grib2 2026-04-12 04:50 1.1M
20260412T00Z_MSC_GDPS_WindSpeed_AGL-120m_LatLon0.15_PT201H.grib2 2026-04-12 04:50 1.2M
20260412T00Z_MSC_GDPS_WindSpeed_AGL-40m_LatLon0.15_PT201H.grib2 2026-04-12 04:50 1.2M
20260412T00Z_MSC_GDPS_WindSpeed_AGL-80m_LatLon0.15_PT201H.grib2 2026-04-12 04:50 1.2M
20260412T00Z_MSC_GDPS_WindSpeed_IsbL-0001_LatLon0.15_PT201H.grib2 2026-04-12 04:50 635K
20260412T00Z_MSC_GDPS_WindSpeed_IsbL-0005_LatLon0.15_PT201H.grib2 2026-04-12 04:50 602K
20260412T00Z_MSC_GDPS_WindSpeed_IsbL-0500_LatLon0.15_PT201H.grib2 2026-04-12 04:50 1.1M
20260412T00Z_MSC_GDPS_WindSpeed_IsbL-0700_LatLon0.15_PT201H.grib2 2026-04-12 04:50 1.5M
20260412T00Z_MSC_GDPS_WindSpeed_IsbL-0850_LatLon0.15_PT201H.grib2 2026-04-12 04:50 1.7M
20260412T00Z_MSC_GDPS_WindSpeed_IsbL-0925_LatLon0.15_PT201H.grib2 2026-04-12 04:50 1.8M
20260412T00Z_MSC_GDPS_WindSpeed_IsbL-1000_LatLon0.15_PT201H.grib2 2026-04-12 04:50 1.9M
20260412T00Z_MSC_GDPS_WindU_AGL-10m_LatLon0.15_PT201H.grib2 2026-04-12 04:50 1.3M
20260412T00Z_MSC_GDPS_WindU_AGL-120m_LatLon0.15_PT201H.grib2 2026-04-12 04:50 1.0M
20260412T00Z_MSC_GDPS_WindU_AGL-40m_LatLon0.15_PT201H.grib2 2026-04-12 04:50 958K
20260412T00Z_MSC_GDPS_WindU_AGL-80m_LatLon0.15_PT201H.grib2 2026-04-12 04:50 1.0M
20260412T00Z_MSC_GDPS_WindU_IsbL-0001_LatLon0.15_PT201H.grib2 2026-04-12 04:50 634K
20260412T00Z_MSC_GDPS_WindU_IsbL-0005_LatLon0.15_PT201H.grib2 2026-04-12 04:50 682K
20260412T00Z_MSC_GDPS_WindU_IsbL-0500_LatLon0.15_PT201H.grib2 2026-04-12 04:50 1.1M
20260412T00Z_MSC_GDPS_WindU_IsbL-0700_LatLon0.15_PT201H.grib2 2026-04-12 04:50 1.2M
20260412T00Z_MSC_GDPS_WindU_IsbL-0850_LatLon0.15_PT201H.grib2 2026-04-12 04:50 1.4M
20260412T00Z_MSC_GDPS_WindU_IsbL-0925_LatLon0.15_PT201H.grib2 2026-04-12 04:50 1.4M
20260412T00Z_MSC_GDPS_WindU_IsbL-1000_LatLon0.15_PT201H.grib2 2026-04-12 04:50 1.4M
20260412T00Z_MSC_GDPS_WindV_AGL-10m_LatLon0.15_PT201H.grib2 2026-04-12 04:50 1.3M
20260412T00Z_MSC_GDPS_WindV_AGL-120m_LatLon0.15_PT201H.grib2 2026-04-12 04:50 1.0M
20260412T00Z_MSC_GDPS_WindV_AGL-40m_LatLon0.15_PT201H.grib2 2026-04-12 04:50 957K
20260412T00Z_MSC_GDPS_WindV_AGL-80m_LatLon0.15_PT201H.grib2 2026-04-12 04:50 1.0M
20260412T00Z_MSC_GDPS_WindV_IsbL-0001_LatLon0.15_PT201H.grib2 2026-04-12 04:50 691K
20260412T00Z_MSC_GDPS_WindV_IsbL-0005_LatLon0.15_PT201H.grib2 2026-04-12 04:50 766K
20260412T00Z_MSC_GDPS_WindV_IsbL-0500_LatLon0.15_PT201H.grib2 2026-04-12 04:50 879K
20260412T00Z_MSC_GDPS_WindV_IsbL-0700_LatLon0.15_PT201H.grib2 2026-04-12 04:50 1.2M
20260412T00Z_MSC_GDPS_WindV_IsbL-0850_LatLon0.15_PT201H.grib2 2026-04-12 04:50 1.4M
20260412T00Z_MSC_GDPS_WindV_IsbL-0925_LatLon0.15_PT201H.grib2 2026-04-12 04:50 1.4M
20260412T00Z_MSC_GDPS_WindV_IsbL-1000_LatLon0.15_PT201H.grib2 2026-04-12 04:50 1.4M